Flag for Puerto Rico Weather past 2 weeks in Caguas, Puerto Rico

Now
79 °F

Passing clouds.


Feels Like: 83 °F
Forecast: 77 / 88 °F
Wind: 7 mph from East

Location: Luis Munoz Marin

Current Time: Aug 1, 2014 at 2:36:58 AM

Latest Report: Aug 1, 2014 at 1:56 AM


Visibility: 10 mi

Pressure: 29.98 "Hg

Humidity: 84%

Dew point: 74 °F

Location of CaguasLocation

Historic Weather in Caguas — Graph

°F

Caguas temperature yesterday

Maximum temperature yesterday: 90 °F (at 12:56 PM)
Minimum temperature yesterday: 79 °F (at 2:56 AM)
Average temperature yesterday: 83 °F

Past Weeks' High & Low Weather Summary

 TemperatureHumidityPressure
High90 °F (Jul 20, 11:56 AM)100% (Jul 29, 11:56 AM)30.12 "Hg (Jul 29, 11:56 AM)
Low79 °F (Jul 18, 2:56 AM)59% (Jul 19, 4:56 PM)29.95 "Hg (Jul 31, 2:56 PM)
Average84 °F75%30.05 "Hg
* Reported Jul 17 12:56 AM — Aug 1 12:56 AM, Caguas, Weather by CustomWeather, © 2014

Note: Actual official high and low records may vary slightly from our data, if they occured in-between our weather recording intervals... More about our weather records

Advertising

Caguas weather history for previous 24 hours

 ConditionsComfort  
Time TempWeatherWind HumidityBarometerVisibility
12:56 AM
Aug 1
79 °FPassing clouds.7 mph90%30.00 "Hg10 mi
11:56 PM
Jul 31
81 °FPassing clouds.3 mph79%30.02 "Hg10 mi
10:56 PM81 °FPassing clouds.6 mph79%30.02 "Hg10 mi
9:56 PM81 °FPassing clouds.7 mph82%30.02 "Hg10 mi
8:56 PM82 °FPassing clouds.7 mph94%30.00 "Hg10 mi
7:56 PM80 °FScattered clouds.6 mph78%29.98 "Hg10 mi
6:56 PM82 °FScattered clouds.12 mph94%29.98 "Hg10 mi
5:56 PM86 °FScattered clouds.6 mph70%29.96 "Hg9 mi
4:56 PM86 °FScattered clouds.10 mph65%29.95 "Hg10 mi
3:56 PM87 °FPartly sunny.10 mph63%29.96 "Hg10 mi
2:56 PM86 °FScattered clouds.15 mph70%29.95 "Hg10 mi
1:56 PM89 °FScattered clouds.17 mph63%29.95 "Hg10 mi
12:56 PM90 °FScattered clouds.15 mph66%29.97 "Hg10 mi
11:56 AM89 °FScattered clouds.15 mph68%29.98 "Hg10 mi
10:56 AM87 °FScattered clouds.8 mph72%30.00 "Hg10 mi
9:56 AM85 °FScattered clouds.9 mph72%30.01 "Hg10 mi
8:56 AM83 °FScattered clouds.7 mph74%30.01 "Hg10 mi
7:56 AM82 °FScattered clouds.No wind79%30.01 "Hg10 mi
6:56 AM79 °FPassing clouds.No wind84%30.01 "Hg10 mi
5:56 AM79 °FPassing clouds.No wind84%29.99 "Hg10 mi
4:56 AM79 °FPassing clouds.No wind84%29.99 "Hg10 mi
3:56 AM79 °FPassing clouds.No wind84%29.98 "Hg10 mi
2:56 AM79 °FPassing clouds.No wind82%29.99 "Hg10 mi
Weather by CustomWeather, © 2014

See weather overviewHow to use our weather pages